Location: Drocourt
(49.0571°N, 1.7669°E)
Time: 05:44:43
(UTC+00:00)

Cosmos 1386 Rocket - Pass Details

Date: 09 February 2023
Orbit: 930 x 1005 km, 83.0° (Epoch: 29 March)

Event Time Altitude Azimuth Distance (km) Brightness Sun altitude
Rises 18:03:47 0° 351° (N) 3,596 7.5 -10.4°
Reaches altitude 10° 18:06:17 10° 354° (N) 2,650 6.8 -10.8°
Maximum altitude 18:12:19 73° 80° (E) 980 4.4 -11.8°
Drops below altitude 10° 18:18:23 10° 165° (SSE) 2,661 6.7 -12.8°
Sets 18:20:53 0° 167° (SSE) 3,612 7.4 -13.2°
